Regional Weather Roundup
Issued by NWS Grand Forks, ND

Home | Current Version | Previous Version | Graphics & Text | Print | Product List | Glossary On
Versions: 1 2 3 4 5 6 7 8 9 10 11 12 13 14 15 16 17 18 19 20 21 22 23 24 25 26 27 28 29 30 31 32 33 34 35 36 37 38 39 40 41 42 43 44 45 46 47 48 49 50
000
ASUS43 KFGF 252010
RWRFGF
PRAIRIE TO PINES  WEATHER ROUNDUP
NATIONAL WEATHER SERVICE EASTERN NORTH DAKOTA/GRAND FORKS ND
300 PM CDT MON JUL 25 2016

 **SATELLITE DATA USED TO AUGMENT SKY COVER AT AUTOMATED STATIONS**
 *****  WEATHER ACROSS EASTERN NORTH DAKOTA  *****

CITY           SKY/WX    TMP DP  RH WIND       PRES   REMARKS
GRAND FORKS    SUNNY     87  66  49 S13       29.95F
GRAND FRKS AFB SUNNY     86  65  49 S14       29.96F
GRAND FRKS NWS   N/A     86 N/A N/A S13         N/A
DEVILS LAKE    SUNNY     85  66  53 S12       29.96F
FARGO          SUNNY     89  61  38 SW13G23   29.97F
WAHPETON ARPT  CLEAR     86  61  42 S13       30.01F
$$

 ***** WEATHER ACROSS CENTRAL AND WESTERN NORTH DAKOTA  *****

CITY           SKY/WX    TMP DP  RH WIND       PRES   REMARKS
BISMARCK       SUNNY     90  65  43 SW6       29.95F HX  92
MINOT          SUNNY     89  63  41 SE5       29.95S HX  90
JAMESTOWN      SUNNY     89  61  38 S20G26    29.95F
MINOT AFB      SUNNY     85  64  48 VRB7      29.94S
GARRISON         N/A     85  65  51 CALM      29.96S
WILLISTON      SUNNY     91  52  26 VRB5G18   29.97S
DICKINSON      SUNNY     91  47  21 VRB3      29.97F
HETTINGER      MOSUNNY   95  48  20 S7        29.98F HX  91
$$

 *****  OTHER AIRPORT OBSERVATIONS IN OUR AREA  *****

CITY           SKY/WX    TMP DP  RH WIND       PRES   REMARKS
WALHALLA       NOT AVBL
GRAFTON AIRPOR FAIR      84  63  48 VRB7      29.97F
VALLEY CITY AR FAIR      86  64  48 S16G23    30.00S
CANDO          NOT AVBL
CAVALIER APRT  FAIR      84  63  48 S5        29.96S
GWINNER        FAIR      90  61  37 S17G24    30.00F
ROLLA            N/A     79  64  61 E7        30.00S
 ***** THE ABOVE OBSERVATIONS ARE NON NWS ARE NOT QUALITY
       CONTROLLED AND MAY MIS-REPORT RAIN FOR SNOW...
$$

  *****  WEATHER ACROSS NORTHERN MINNESOTA  *****

CITY           SKY/WX    TMP DP  RH WIND       PRES   REMARKS
FLAG ISLAND    SUNNY     79  57  47 NW9       29.95S
WARROAD        NOT AVBL
ROSEAU         SUNNY     81  66  61 W5        29.98F
HALLOCK        SUNNY     82  63  51 W5        29.96F
THF RVR FALLS  SUNNY     81  63  54 SW7       30.00F
BAUDETTE       SUNNY     82  59  45 W12G18    29.98S
WASKISH        SUNNY     81  64  57 SW12      30.00S
CROOKSTON      SUNNY     84  64  51 S8        29.98F
STEPHEN NDAWN    N/A     82  64  54 S3          N/A
GREENBUSH NDAW   N/A     82  64  54 W5          N/A
$$
  *****  WEATHER ACROSS CENTRAL AND WEST MINNESOTA  *****

CITY           SKY/WX    TMP DP  RH WIND       PRES   REMARKS
FOSSTON        SUNNY     81  63  54 SW9       30.02F
BEMIDJI        SUNNY     82  61  47 SW10      30.02F
PARK RAPIDS    SUNNY     85  60  42 W10       30.03F
ELBOW LAKE     FAIR      83  67  58 W9        30.05F
WADENA         SUNNY     81  63  54 W8        30.05S
DETROIT LAKES  SUNNY     82  61  47 SW9       30.05S
MOORHEAD       SUNNY     88  63  42 S9        30.00F
FERGUS FALLS   SUNNY     82  66  57 S8        30.04F
MORRIS MN      SUNNY     88  64  45 SW10      30.04F
STAPLES        SUNNY     84  57  39 W12       30.05S
$$
  *****  WEATHER ELSEWHERE ACROSS MINNESOTA  *****

CITY           SKY/WX    TMP DP  RH WIND       PRES   REMARKS
DULUTH         MOSUNNY   82  59  45 W14       30.01F
INTRNTL FALLS  MOSUNNY   82  62  50 VRB7      29.97F
ELY            MOSUNNY   79  57  47 W8        30.00S
CLOQUET        SUNNY     82  54  36 NW10      30.02S
WHEATON        SUNNY     90  66  45 SW8       30.03F HX  92
BRAINERD       SUNNY     83  59  44 NW9       30.04F
HIBBING        MOSUNNY   79  58  48 NW10      30.01F
ALEXANDRIA     SUNNY     83  62  49 SW10      30.08F
SAINT CLOUD    SUNNY     83  63  50 SW13      30.05F
MINNEAPOLIS    MOSUNNY   85  59  41 NW9       30.05S
$$

  *****  WEATHER ACROSS SOUTH DAKOTA  *****

CITY           SKY/WX    TMP DP  RH WIND       PRES   REMARKS
SIOUX FALLS    SUNNY     84  58  40 S7        30.10F
BROOKINGS      SUNNY     83  61  47 S9G18     30.09F
WATERTOWN      SUNNY     88  62  41 S13       30.07F
HURON          SUNNY     88  57  34 S14G25    30.04F
SISSETON         N/A     88  58  36 SW13G20   30.01F
ABERDEEN       SUNNY     92  54  27 SW16G23   30.00F HX  90
MITCHELL       SUNNY     89  60  37 S10       30.06F
PIERRE         SUNNY     96  47  18 S15G30    29.98F HX  92
MOBRIDGE       SUNNY     99  55  23 S15G24    29.93F HX  97
RAPID CITY     SUNNY     89  55  31 S21G26    30.03F
$$

  *****  SOME WEATHER IN NEARBY STATES *****

CITY           SKY/WX    TMP DP  RH WIND       PRES   REMARKS
GLASGOW MT     SUNNY     92  49  22 VRB7      29.97F
GREAT FALLS MT SUNNY     86  43  22 VRB3      30.08F
CHEYENNE WY    SUNNY     86  51  29 SE13G21   30.22F
SCOTTSBLUFF NE SUNNY     91  56  30 S16G24    30.09F
OMAHA NE       MOSUNNY   87  65  47 N7        30.08F
DES MOINES IA  MOSUNNY   89  59  36 N13       30.07F
DAVENPORT IA   MOSUNNY   83  69  62 VRB5      30.04F
CHICAGO IL     MOSUNNY   89  60  37 N7        29.98F
EAU CLAIRE WI  PTSUNNY   81  61  50 W7        30.03F
LA CROSSE WI   SUNNY     85  63  47 NW10      30.02F
$$

  *****  SOME NATIONAL WEATHER *****

CITY           SKY/WX    TMP DP  RH WIND       PRES   REMARKS
LA GUARDIA NY  PTSUNNY   91  74  57 S14G23    29.81F HX 100
RALEIGH NC     PTSUNNY   96  73  47 W8        29.97F HX 105
ATLANTA GA     PTSUNNY   95  66  38 NE6       30.01F HX  98
NEW ORLEANS LA PTSUNNY   88  74  63 S18G26    29.92S THUNDER HX  96
OKLAHOMA CITY  PTSUNNY   94  71  47 VRB3      29.98F HX 101
ALBUQUERQUE NM CLOUDY    91  45  20 VRB3      30.18F
SALT LAKE CITY MOSUNNY   98  40  13 CALM      30.03F HX  93
LOS ANGELES CA MOSUNNY   80  66  62 SW12      29.95F
BOISE ID       SUNNY     92  40  16 VRB6      29.99F
SEATTLE WA     MOSUNNY   81  60  48 NW9       30.08S
$$

*** WEATHER ACROSS MANITOBA...SASKATCHEWAN AND ONTARIO ***
                ***ONTARIO***

CITY           SKY/WX    TMP DP  RH WIND       PRES   REMARKS
GERALDTON      PTSUNNY   75  59  57 W12G22    29.82S
THUNDER BAY    PTSUNNY   81  57  44 W14G24    29.89S
SIOUX LOOKOUT  PTSUNNY   79  61  53 W10G20    29.92S
TORONTO        PTSUNNY   90  63  40 NW22      29.82R HX  90
BIG TROUT LK   SUNNY     73  59  60 W6G17     29.73F
PICKLE LAKE    PTSUNNY   77  54  44 W13G22    29.83S
DRYDEN         PTSUNNY   77  57  50 W15       29.94S
KENORA         MOSUNNY   79  57  47 W9        29.95F
$$
                *** MANITOBA***

CITY           SKY/WX    TMP DP  RH WIND       PRES   REMARKS
BRANDON        MOSUNNY   82  61  47 W3        29.97S
DAUPHIN        SUNNY     82  61  47 W14G21    29.92S
ISLAND LAKE    PTSUNNY   81  55  41 W18G25    29.70F THUNDER
PILOT MOUND      N/A     81  59  47 S3          N/A
THE PAS        MOSUNNY   73  52  46 NW17      29.87R
THOMPSON       PTSUNNY   64  59  82 W12       29.74R
WINNIPEG       MOSUNNY   81  61  50 W3        29.95S
LYNN LAKE      PTSUNNY   68  52  56 MISG      29.76S
CHURCHILL      PTSUNNY   61  55  82 S12G17    29.64R
GILLAM         MOSUNNY   72  61  68 N3        29.60F
$$
                ***SASKATCHEWAN***

CITY           SKY/WX    TMP DP  RH WIND       PRES   REMARKS
ESTEVAN        MOSUNNY   84  61  45 VRB2      29.99S
KINDERSLEY     MOSUNNY   75  50  41 VRB5      30.07S
LLOYDMINSTER   MOSUNNY   72  52  49 NW10      30.07S
PRINCE ALBERT  MOSUNNY   75  50  41 NW12G24   29.99R
REGINA         MOSUNNY   81  63  54 NW8       29.99S
YORKTON        PTSUNNY   77  64  65 N12       29.96S
N. BATTLEFORD  SUNNY     75  46  35 W15       30.06S
LA RONGE       PTSUNNY   70  48  46 W16G28    29.93R
SASKATOON      MOSUNNY   77  54  44 NW15G22   30.03S
SWIFT CURRENT  SUNNY     77  61  57 N8        30.05S
$$
NOTE: THESE ARE AUTOMATED STATIONS WITH LIMITED QUALITY CONTROL
      "FAIR" INDICATES FEW OR NO CLOUDS BELOW 12,000 FEET WITH NO
      SIGNIFICANT WEATHER AND/OR OBSTRUCTIONS TO VISIBILITY.
      SKY/WX - SKY CONDITION AND SIGNIFICANT WEATHER.
      TMP - AIR TEMPERATURE.    DP   - DEWPOINT TEMPERATURE.
      RH  - RELATIVE HUMIDITY.  PRES - PRESSURE.
      HX  - HEAT INDEX.         WCI  - WIND CHILL INDEX.
$




USA.gov is the U.S. government's official web portal to all federal, state and local government web resources and services.